Regional Weather Roundup
Issued by NWS

Home | Current Version | Previous Version | Graphics & Text | Print | Product List | Glossary On
Versions: 1 2 3 4 5 6 7 8 9 10 11 12 13 14 15 16 17 18 19 20 21 22 23 24 25 26 27 28 29 30 31 32 33 34 35 36 37 38 39 40 41 42 43 44 45 46 47 48 49 50
000
ASUS43 KBIS 260510
RWRND

NORTH DAKOTA REGIONAL WEATHER ROUNDUP
NATIONAL WEATHER SERVICE BISMARCK ND
1200 AM CDT THU MAY 26 2016

NOTE: "FAIR" INDICATES FEW OR NO CLOUDS BELOW 12,000 FEET WITH NO
SIGNIFICANT WEATHER AND/OR OBSTRUCTIONS TO VISIBILITY.


NDZ001>003-009>011-017-260600-
NORTHWEST NORTH DAKOTA

CITY           SKY/WX    TMP DP  RH WIND       PRES   REMARKS
WILLISTON      CLEAR     47  45  93 NW6       29.82S
MINOT          CLOUDY    60  55  83 S10       29.73F
MINOT AFB      CLOUDY    57  53  88 NW1       29.73S
$$

NDZ018>021-031>035-040>046-260600-
SOUTHWEST NORTH DAKOTA

CITY           SKY/WX    TMP DP  RH WIND       PRES   REMARKS
BISMARCK       PTCLDY    55  51  86 W8        29.80R
DICKINSON      CLEAR     41  38  89 W7        29.81F
GARRISON         N/A     55  51  86 W9        29.78S
HETTINGER ARPT CLEAR     42  38  85 CALM      29.86S
$$

NDZ004>008-012>016-024-026-027-054-260600-
NORTHEAST NORTH DAKOTA

CITY           SKY/WX    TMP DP  RH WIND       PRES   REMARKS
GRAND FORKS    CLOUDY    59  56  89 SW7       29.70R
GRND FRKS AFB  CLOUDY    58  58  99 W7        29.71R
DEVILS LAKE    PTCLDY    55  53  93 CALM      29.75R
$$

NDZ022-023-025-028>030-036>039-047>053-260600-
SOUTHEAST NORTH DAKOTA

CITY           SKY/WX    TMP DP  RH WIND       PRES   REMARKS
FARGO          LGT RAIN  58  54  86 N5        29.73F
JAMESTOWN      CLOUDY    57  56  96 NW6       29.73R
$$





USA.gov is the U.S. government's official web portal to all federal, state and local government web resources and services.